sat.trackr.live / text

‹ back to catalog

STARLINK-31887

NORAD 59839 · 2024-097E

PAYLOAD ACTIVE UNKNOWN

§ Identity

Operator
Country
US
Launch date
2024-05-23
Launch site
AFETR
Launch vehicle
Mass (kg)
RCS (m²)

Purposes: comms

External: N2YO · Heavens-Above · Gunter

§ Orbital elements

Epoch: 2026-09-21T15:49:09.363360Z

Period
94.27 min
Inclination
43.0006°
Eccentricity
0.0000698
Mean motion
15.27576765 rev/d
Perigee alt
482.6 km
Apogee alt
483.5 km
Semi-major
6,861.2 km
B*
8.5347e-6
RAAN
247.9803°
Arg perigee
282.4415°
Mean anomaly
77.6358°
Rev number
13,188

§ Raw data

STARLINK-318871 59839U 24097E   26264.65913615 -.00000027  00000+0  85347-5 0  99932 59839  43.0006 247.9803 0000698 282.4415  77.6358 15.27576765131889

JSON: /api/v1/satellites/59839 · /tle

For live sub-satellite position, see the globe view (requires WebGL).

§ Visibility from observer

Set your observer location to see the next 7 days of passes ≥ 10°. The values pass through the URL so the page stays shareable.

No JS? Fill the form by hand. The geolocation button needs JavaScript.